Location: Góry Miechowskie
(50.3599°N, 20.1803°E)
Time: 12:05:22
(UTC+00:00)

NOSS 3-2 (C) - Pass Details

Date: 15 June 2024
Orbit: 707 x 1504 km, 63.4° (Epoch: 11 July)

Event Time Altitude Azimuth Distance (km) Brightness Sun altitude
Exits shadow 01:05:09 12° 218° (SW) 2,170 4.7 -9.6°
Maximum altitude 01:10:03 84° 132° (SE) 874 3.3 -9.2°
Drops below altitude 10° 01:16:26 10° 44° (NE) 2,775 7.5 -8.6°
Sets 01:19:18 0° 44° (NE) 3,857 8.9 -8.3°
